Morris, MN

3:56 AM CDT on September 22, 2017 (GMT -0500)
Morris Municipal

Weather History for KMOX - July, 2013

Change the Weather History Date:

Monday, July 1, 2013

  Actual Average Record
Temperature  
Mean Temperature 72 °F -  
Max Temperature 86 °F 76 °F 95 °F (2002)
Min Temperature 57 °F 56 °F 42 °F (2016)
Cooling Degree Days 6    
Growing Degree Days 22 (Base 50)    
Moisture  
Dew Point 54 °F    
Average Humidity 56    
Maximum Humidity 94    
Minimum Humidity 27    
Precipitation  
Precipitation 0.00 in - - ()
Sea Level Pressure  
Sea Level Pressure 30.19 in    
Wind  
Wind Speed 4 mph (NNE)    
Max Wind Speed 12 mph    
Max Gust Speed -    
Visibility 10 miles    
Events      
Averages and records for this station are not official NWS values.
T = Trace of Precipitation, MM = Missing Value Source: NWS Daily Summary

Daily Weather History Graph

Daily Weather History Graph

Search for Another Location

Airport or City:

Trip Planner

Search our weather history database for the weather conditions in past years. The results will help you decide how hot, cold, wet, or windy it might be!

Date:

Astronomy

Jul. 01, 2013 Rise Set
Actual Time 5:38 AM CDT 9:16 PM CDT
Civil Twilight 5:01 AM CDT 9:54 PM CDT
Nautical Twilight 4:10 AM CDT 10:44 PM CDT
Astronomical Twilight 3:03 AM CDT 11:51 PM CDT
Moon 1:21 AM CDT (7/1) 3:22 PM CDT (7/1)
Length of Visible Light 16h 53m
Length of Day
15h 37m
Waning Crescent, 35% of the Moon is Illuminated
Jul 1
Waning Crescent
Jul 8
New
Jul 15
First Quarter
Jul 22
Full
Jul 29
Last Quarter

Hourly Weather History & Observations

Time (CDT) Temp. Heat Index Dew Point Humidity Pressure Visibility Wind Dir Wind Speed Gust Speed Precip Events Conditions
12:10 AM 66.2 °F - 55.4 °F 68% 30.16 in 10.0 mi Calm Calm - N/A   Clear
12:30 AM 66.2 °F - 57.2 °F 73% 30.17 in 10.0 mi NW 3.5 mph - N/A   Clear
12:50 AM 64.4 °F - 57.2 °F 77% 30.17 in 10.0 mi NW 3.5 mph - N/A   Clear
1:10 AM 62.6 °F - 57.2 °F 82% 30.17 in 10.0 mi WNW 3.5 mph - N/A   Clear
1:30 AM 62.6 °F - 57.2 °F 82% 30.17 in 10.0 mi Calm Calm - N/A   Clear
1:50 AM 62.6 °F - 57.2 °F 82% 30.17 in 10.0 mi NW 3.5 mph - N/A   Clear
2:10 AM 60.8 °F - 57.2 °F 88% 30.18 in 10.0 mi NW 4.6 mph - N/A   Clear
2:30 AM 60.8 °F - 57.2 °F 88% 30.18 in 10.0 mi NW 4.6 mph - N/A   Clear
2:50 AM 60.8 °F - 57.2 °F 88% 30.18 in 7.0 mi NW 3.5 mph - N/A   Clear
3:10 AM 60.8 °F - 55.4 °F 82% 30.18 in 10.0 mi NW 4.6 mph - N/A   Clear
3:30 AM 60.8 °F - 57.2 °F 88% 30.18 in 10.0 mi NW 3.5 mph - N/A   Clear
3:50 AM 60.8 °F - 55.4 °F 82% 30.18 in 10.0 mi NW 4.6 mph - N/A   Clear
4:10 AM 59.0 °F - 55.4 °F 88% 30.18 in 10.0 mi NW 3.5 mph - N/A   Clear
4:30 AM 59.0 °F - 55.4 °F 88% 30.18 in 10.0 mi WNW 5.8 mph - N/A   Clear
4:50 AM 59.0 °F - 55.4 °F 88% 30.19 in 10.0 mi NW 3.5 mph - N/A   Clear
5:10 AM 60.8 °F - 55.4 °F 82% 30.19 in 10.0 mi NW 4.6 mph - N/A   Clear
5:30 AM 59.0 °F - 55.4 °F 88% 30.19 in 10.0 mi NNW 4.6 mph - N/A   Clear
5:50 AM 57.2 °F - 55.4 °F 94% 30.20 in 10.0 mi NNW 4.6 mph - N/A   Clear
6:10 AM 59.0 °F - 55.4 °F 88% 30.20 in 10.0 mi NW 6.9 mph - N/A   Scattered Clouds
6:30 AM 59.0 °F - 55.4 °F 88% 30.21 in 10.0 mi North 4.6 mph - N/A   Scattered Clouds
6:50 AM 60.8 °F - 57.2 °F 88% 30.21 in 10.0 mi Calm Calm - N/A   Mostly Cloudy
7:10 AM 62.6 °F - 57.2 °F 82% 30.21 in 10.0 mi NW 3.5 mph - N/A   Mostly Cloudy
7:30 AM 64.4 °F - 59.0 °F 83% 30.21 in 7.0 mi NW 3.5 mph - N/A   Scattered Clouds
7:50 AM 66.2 °F - 60.8 °F 83% 30.21 in 10.0 mi Calm Calm - N/A   Scattered Clouds
8:10 AM 68.0 °F - 60.8 °F 78% 30.21 in 10.0 mi Calm Calm - N/A   Scattered Clouds
8:30 AM 69.8 °F - 60.8 °F 73% 30.22 in 10.0 mi North 3.5 mph - N/A   Clear
8:50 AM 73.4 °F - 62.6 °F 69% 30.22 in 10.0 mi North 3.5 mph - N/A   Clear
9:10 AM 75.2 °F - 60.8 °F 61% 30.22 in 10.0 mi Calm Calm - N/A   Clear
9:30 AM 77.0 °F - 59.0 °F 54% 30.22 in 10.0 mi Calm Calm - N/A   Clear
9:50 AM 78.8 °F - 57.2 °F 47% 30.22 in 10.0 mi North 3.5 mph - N/A   Clear
10:10 AM 80.6 °F 80.8 °F 57.2 °F 45% 30.22 in 10.0 mi North 4.6 mph - N/A   Clear
10:30 AM 80.6 °F 80.5 °F 55.4 °F 42% 30.22 in 10.0 mi North 4.6 mph - N/A   Clear
10:50 AM 82.4 °F - 51.8 °F 35% 30.22 in 10.0 mi NE 3.5 mph - N/A   Clear
11:10 AM 82.4 °F - 51.8 °F 35% 30.21 in 10.0 mi NE 3.5 mph - N/A   Clear
11:30 AM 82.4 °F 81.4 °F 53.6 °F 37% 30.21 in 10.0 mi North 8.1 mph - N/A   Clear
11:50 AM 82.4 °F - 50.0 °F 32% 30.21 in 10.0 mi NE 4.6 mph - N/A   Scattered Clouds
12:10 PM 84.2 °F - 50.0 °F 30% 30.21 in 10.0 mi NNE 9.2 mph - N/A   Scattered Clouds
12:30 PM 84.2 °F - 51.8 °F 33% 30.21 in 10.0 mi NE 11.5 mph - N/A   Scattered Clouds
12:50 PM 84.2 °F - 51.8 °F 33% 30.21 in 10.0 mi NNE 3.5 mph - N/A   Scattered Clouds
1:10 PM 84.2 °F - 48.2 °F 29% 30.21 in 10.0 mi North 9.2 mph - N/A   Scattered Clouds
1:30 PM 84.2 °F - 48.2 °F 29% 30.20 in 10.0 mi NNE 6.9 mph - N/A   Scattered Clouds
1:50 PM 84.2 °F - 48.2 °F 29% 30.20 in 10.0 mi North 8.1 mph - N/A   Scattered Clouds
2:10 PM 84.2 °F - 48.2 °F 29% 30.20 in 10.0 mi North 8.1 mph - N/A   Scattered Clouds
2:30 PM 82.4 °F - 48.2 °F 30% 30.20 in 10.0 mi NE 10.4 mph - N/A   Clear
2:50 PM 84.2 °F - 48.2 °F 29% 30.19 in 10.0 mi NE 6.9 mph - N/A   Scattered Clouds
3:10 PM 82.4 °F - 48.2 °F 30% 30.19 in 10.0 mi NNE 3.5 mph - N/A   Scattered Clouds
3:30 PM 86.0 °F - 48.2 °F 27% 30.18 in 10.0 mi ENE 4.6 mph - N/A   Scattered Clouds
3:50 PM 86.0 °F - 48.2 °F 27% 30.18 in 10.0 mi East 6.9 mph - N/A   Scattered Clouds
4:10 PM 82.4 °F - 46.4 °F 28% 30.18 in 10.0 mi NE 5.8 mph - N/A   Scattered Clouds
4:30 PM 84.2 °F - 48.2 °F 29% 30.18 in 10.0 mi NNE 6.9 mph - N/A   Clear
4:50 PM 84.2 °F - 48.2 °F 29% 30.17 in 10.0 mi ENE 3.5 mph - N/A   Scattered Clouds
5:10 PM 84.2 °F - 48.2 °F 29% 30.17 in 10.0 mi NE 4.6 mph - N/A   Clear
5:30 PM 84.2 °F - 48.2 °F 29% 30.17 in 10.0 mi NNE 9.2 mph - N/A   Clear
5:50 PM 84.2 °F - 48.2 °F 29% 30.17 in 10.0 mi Calm Calm - N/A   Clear
6:10 PM 84.2 °F - 48.2 °F 29% 30.17 in 10.0 mi NE 5.8 mph - N/A   Clear
6:30 PM 84.2 °F - 51.8 °F 33% 30.16 in 10.0 mi NE 4.6 mph - N/A   Clear
6:50 PM 84.2 °F - 48.2 °F 29% 30.16 in 10.0 mi ENE 4.6 mph - N/A   Clear
7:10 PM 84.2 °F - 48.2 °F 29% 30.16 in 10.0 mi NE 4.6 mph - N/A   Clear
7:30 PM 82.4 °F - 50.0 °F 32% 30.16 in 10.0 mi NNE 5.8 mph - N/A   Clear
7:50 PM 82.4 °F - 51.8 °F 35% 30.16 in 10.0 mi NE 4.6 mph - N/A   Clear
8:10 PM 80.6 °F 80.3 °F 53.6 °F 39% 30.16 in 10.0 mi NE 3.5 mph - N/A   Clear
8:30 PM 78.8 °F - 57.2 °F 47% 30.16 in 10.0 mi NE 3.5 mph - N/A   Clear
8:50 PM 75.2 °F - 57.2 °F 53% 30.16 in 10.0 mi NE 4.6 mph - N/A   Clear
9:10 PM 73.4 °F - 57.2 °F 57% 30.16 in 10.0 mi NE 4.6 mph - N/A   Clear
9:30 PM 73.4 °F - 55.4 °F 53% 30.16 in 10.0 mi ENE 3.5 mph - N/A   Clear
9:50 PM 73.4 °F - 55.4 °F 53% 30.16 in 10.0 mi ENE 3.5 mph - N/A   Clear
10:10 PM 73.4 °F - 55.4 °F 53% 30.16 in 10.0 mi ENE 3.5 mph - N/A   Clear
10:30 PM 69.8 °F - 55.4 °F 60% 30.16 in 10.0 mi East 3.5 mph - N/A   Clear
10:50 PM 71.6 °F - 55.4 °F 57% 30.16 in 10.0 mi East 3.5 mph - N/A   Clear
11:10 PM 69.8 °F - 55.4 °F 60% 30.16 in 10.0 mi East 3.5 mph - N/A   Clear
11:30 PM 68.0 °F - 57.2 °F 68% 30.16 in 10.0 mi Calm Calm - N/A   Clear
11:50 PM 68.0 °F - 57.2 °F 68% 30.16 in 10.0 mi Calm Calm - N/A   Clear